Weather History for KSGF - November, 2012

Change the Weather History Date:

Wednesday, November 28, 2012

  Actual Average Record
Temperature  
Mean Temperature 38 °F 40 °F  
Max Temperature 53 °F 51 °F 73 °F (1998)
Min Temperature 23 °F 30 °F 10 °F (1976)
Degree Days  
Heating Degree Days 27 25  
Month to date heating degree days 496 521  
Since 1 July heating degree days 892 829  
Cooling Degree Days 0 0  
Month to date cooling degree days 1 0  
Year to date cooling degree days 1764 1387  
Moisture  
Dew Point 26 °F    
Average Humidity 62    
Maximum Humidity 85    
Minimum Humidity 33    
Precipitation  
Precipitation 0.00 in 0.14 in 0.64 in (1908)
Month to date precipitation 1.03 3.95  
Year to date precipitation 29.84 42.26  
Snow  
Snow 0.00 in - - ()
Month to date snowfall 0.0  
Since 1 July snowfall 0.0  
Since 1 September snowfall 0.0  
Snow Depth 0.00 in    
Sea Level Pressure  
Sea Level Pressure 30.36 in    
Wind  
Wind Speed 6 mph (SSE)    
Max Wind Speed 14 mph    
Max Gust Speed 22 mph    
Visibility 10 miles    
Events      
T = Trace of Precipitation, MM = Missing Value Source: NWS Daily Summary

Daily Weather History Graph

Daily Weather History Graph

Search for Another Location

Airport or City:

Trip Planner

Search our weather history database for the weather conditions in past years. The results will help you decide how hot, cold, wet, or windy it might be!

Date:

Astronomy

Nov. 28, 2012 Rise Set
Actual Time 7:06 AM CST 4:56 PM CST
Civil Twilight 6:37 AM CST 5:25 PM CST
Nautical Twilight 6:05 AM CST 5:57 PM CST
Astronomical Twilight 5:34 AM CST 6:28 PM CST
Moon 5:12 PM CST (11/28) 7:04 AM CST (11/28)
Length of Visible Light 10h 47m
Length of Day
9h 50m
Full, 100% of the Moon is Illuminated
Nov 28
Full
Dec 6
Last Quarter
Dec 13
New
Dec 19
First Quarter
Dec 28
Full

Hourly Weather History & Observations

Time (CST) Temp. Windchill Dew Point Humidity Pressure Visibility Wind Dir Wind Speed Gust Speed Precip Events Conditions
12:52 AM 26.1 °F 20.5 °F 19.0 °F 75% 30.38 in 10.0 mi SW 4.6 mph - N/A   Clear
1:52 AM 27.0 °F - 19.0 °F 72% 30.38 in 10.0 mi Calm Calm - N/A   Clear
2:52 AM 25.0 °F - 19.0 °F 78% 30.39 in 10.0 mi Calm Calm - N/A   Clear
3:52 AM 23.0 °F 17.0 °F 19.0 °F 85% 30.38 in 9.0 mi SSE 4.6 mph - N/A   Clear
4:52 AM 24.1 °F 18.2 °F 19.0 °F 81% 30.40 in 10.0 mi SSE 4.6 mph - N/A   Clear
5:52 AM 25.0 °F 20.7 °F 19.0 °F 78% 30.41 in 10.0 mi SSE 3.5 mph - N/A   Clear
6:52 AM 24.1 °F 17.0 °F 19.0 °F 81% 30.43 in 10.0 mi SSE 5.8 mph - N/A   Clear
7:52 AM 27.0 °F 19.5 °F 21.9 °F 81% 30.44 in 9.0 mi SSE 6.9 mph - N/A   Clear
8:52 AM 33.1 °F 27.7 °F 26.1 °F 75% 30.45 in 10.0 mi SSE 5.8 mph - N/A   Clear
9:52 AM 39.9 °F 36.7 °F 28.9 °F 65% 30.45 in 10.0 mi SSE 4.6 mph - N/A   Clear
10:52 AM 46.0 °F - 30.9 °F 56% 30.45 in 10.0 mi Calm Calm - N/A   Clear
11:52 AM 48.9 °F - 28.9 °F 46% 30.42 in 10.0 mi SSE 8.1 mph - N/A   Clear
12:52 PM 50.0 °F - 28.9 °F 44% 30.39 in 10.0 mi SW 4.6 mph - N/A   Clear
1:52 PM 52.0 °F - 30.0 °F 43% 30.36 in 10.0 mi South 9.2 mph - N/A   Clear
2:52 PM 52.0 °F - 30.0 °F 43% 30.34 in 10.0 mi South 5.8 mph - N/A   Clear
3:52 PM 52.0 °F - 30.9 °F 45% 30.32 in 10.0 mi South 4.6 mph - N/A   Clear
4:52 PM 46.0 °F 42.5 °F 30.0 °F 54% 30.32 in 10.0 mi SSE 6.9 mph - N/A   Clear
5:52 PM 42.1 °F 38.4 °F 28.0 °F 58% 30.32 in 10.0 mi SE 5.8 mph - N/A   Clear
6:52 PM 39.9 °F 35.1 °F 28.0 °F 63% 30.32 in 10.0 mi SSE 6.9 mph - N/A   Clear
7:52 PM 39.9 °F 33.4 °F 28.9 °F 65% 30.31 in 10.0 mi SSE 10.4 mph - N/A   Clear
8:52 PM 39.0 °F 32.8 °F 28.9 °F 67% 30.30 in 10.0 mi SSE 9.2 mph - N/A   Clear
9:52 PM 39.9 °F 33.4 °F 28.0 °F 63% 30.27 in 10.0 mi SSE 10.4 mph - N/A   Clear
10:52 PM 39.9 °F 33.4 °F 28.9 °F 65% 30.25 in 10.0 mi SSE 10.4 mph - N/A   Clear
11:52 PM 39.9 °F 32.9 °F 28.9 °F 65% 30.24 in 10.0 mi SSE 11.5 mph - N/A   Clear